Change the Weather History Date:

Thursday, March 7, 2013

  Actual Average Record
Temperature  
Mean Temperature 50 °F -  
Max Temperature 62 °F 67 °F 83 °F (1951)
Min Temperature 39 °F 47 °F 32 °F (1943)
Degree Days  
Heating Degree Days 14    
Moisture  
Dew Point 40 °F    
Average Humidity 77    
Maximum Humidity 100    
Minimum Humidity 42    
Precipitation  
Precipitation 0.00 in - - ()
Sea Level Pressure  
Sea Level Pressure 30.27 in    
Wind  
Wind Speed 5 mph (NE)    
Max Wind Speed 12 mph    
Max Gust Speed -    
Visibility 7 miles    
Events      
Averages and records for this station are not official NWS values.
T = Trace of Precipitation, MM = Missing Value Source: NWS Daily Summary

Daily Weather History Graph

Daily Weather History Graph

Search for Another Location

Airport or City:

Trip Planner

Search our weather history database for the weather conditions in past years. The results will help you decide how hot, cold, wet, or windy it might be!

Date:

Astronomy

Mar. 07, 2013 Rise Set
Actual Time 6:21 AM CST 6:06 PM CST
Civil Twilight 5:57 AM CST 6:29 PM CST
Nautical Twilight 5:29 AM CST 6:57 PM CST
Astronomical Twilight 5:02 AM CST 7:25 PM CST
Moon 3:05 AM CST (3/7) 2:09 PM CST (3/7)
Length of Visible Light 12h 32m
Length of Day
11h 44m
Waning Crescent, 20% of the Moon is Illuminated
Mar 7
Waning Crescent
Mar 11
New
Mar 19
First Quarter
Mar 27
Full
Apr 2
Last Quarter

Hourly Weather History & Observations

Time (CST) Temp. Windchill Dew Point Humidity Pressure Visibility Wind Dir Wind Speed Gust Speed Precip Events Conditions
12:15 AM 45.7 °F 41.5 °F 34.3 °F 65% 30.26 in 7.0 mi North 8.1 mph - N/A   Clear
12:35 AM 44.6 °F 40.7 °F 34.5 °F 68% 30.27 in 7.0 mi North 6.9 mph - N/A   Clear
12:55 AM 44.1 °F 41.5 °F 35.1 °F 71% 30.27 in 7.0 mi NNE 4.6 mph - N/A   Clear
1:15 AM 43.5 °F 40.1 °F 35.6 °F 74% 30.26 in 7.0 mi NE 5.8 mph - N/A   Clear
1:35 AM 43.2 °F 39.7 °F 36.7 °F 78% 30.26 in 7.0 mi NE 5.8 mph - N/A   Clear
1:55 AM 42.3 °F 38.6 °F 36.9 °F 81% 30.24 in 7.0 mi NE 5.8 mph - N/A   Clear
2:15 AM 43.7 °F 41.1 °F 37.8 °F 80% 30.23 in 7.0 mi NE 4.6 mph - N/A   Clear
2:35 AM 44.1 °F 40.8 °F 37.6 °F 78% 30.24 in 7.0 mi NNE 5.8 mph - N/A   Clear
2:55 AM 44.6 °F 42.2 °F 37.6 °F 76% 30.23 in 7.0 mi NNE 4.6 mph - N/A   Clear
3:15 AM 43.9 °F - 37.4 °F 78% 30.25 in 7.0 mi Calm Calm - N/A   Clear
3:35 AM 43.2 °F 40.5 °F 36.9 °F 78% 30.25 in 7.0 mi North 4.6 mph - N/A   Clear
4:15 AM 41.5 °F - 36.1 °F 81% 30.27 in 7.0 mi Calm Calm - N/A   Clear
4:35 AM 41.0 °F 38.0 °F 36.0 °F 82% 30.28 in 7.0 mi North 4.6 mph - N/A   Clear
4:55 AM 40.3 °F 36.3 °F 35.4 °F 83% 30.28 in 10.0 mi North 5.8 mph - N/A   Clear
5:51 AM 39.2 °F 33.0 °F 35.6 °F 87% 30.29 in 7.0 mi NNE 9.2 mph - N/A   Clear
6:50 AM 39.2 °F 37.0 °F 35.6 °F 87% 30.31 in 7.0 mi North 3.5 mph - N/A   Partly Cloudy
8:51 AM 51.8 °F - 41.0 °F 67% 30.35 in 7.0 mi NE 11.5 mph - N/A   Clear
9:51 AM 55.4 °F - 42.8 °F 63% 30.36 in 7.0 mi ENE 11.5 mph - N/A   Clear
10:53 AM 57.2 °F - 39.2 °F 51% 30.35 in 7.0 mi ENE 11.5 mph - N/A   Clear
11:50 AM 59.0 °F - 42.8 °F 55% 30.33 in 7.0 mi NNE 11.5 mph - N/A   Clear
12:53 PM 60.8 °F - 42.8 °F 52% 30.30 in 7.0 mi North 8.1 mph - N/A   Scattered Clouds
1:50 PM 62.6 °F - 39.2 °F 42% 30.26 in 7.0 mi East 5.8 mph - N/A   Scattered Clouds
2:50 PM 62.6 °F - 44.6 °F 52% 30.25 in 7.0 mi ESE 9.2 mph - N/A   Scattered Clouds
3:50 PM 62.6 °F - 42.8 °F 48% 30.24 in 7.0 mi SSW 5.8 mph - N/A   Clear
4:50 PM 59.0 °F - 46.4 °F 63% 30.25 in 7.0 mi South 5.8 mph - N/A   Clear
5:50 PM 53.6 °F - 46.4 °F 77% 30.25 in 7.0 mi South 5.8 mph - N/A   Clear
6:50 PM 50.0 °F - 44.6 °F 82% 30.26 in 7.0 mi SSE 5.8 mph - N/A   Clear
7:55 PM 48.9 °F - 43.7 °F 82% 30.26 in 7.0 mi SE 3.5 mph - N/A   Clear
8:15 PM 48.9 °F - 43.7 °F 82% 30.26 in 7.0 mi SE 3.5 mph - N/A   Clear
8:35 PM 47.3 °F - 43.5 °F 87% 30.26 in 7.0 mi Calm Calm - N/A   Clear
8:55 PM 47.3 °F - 43.3 °F 86% 30.27 in 10.0 mi Calm Calm - N/A   Clear
9:15 PM 46.8 °F - 43.3 °F 88% 30.27 in 10.0 mi Calm Calm - N/A   Clear
9:35 PM 47.1 °F - 44.2 °F 90% 30.27 in 7.0 mi Calm Calm - N/A   Clear
9:55 PM 45.7 °F - 43.7 °F 93% 30.27 in 7.0 mi Calm Calm - N/A   Clear
10:15 PM 46.0 °F - 44.1 °F 93% 30.28 in 7.0 mi Calm Calm - N/A   Clear
10:35 PM 44.6 °F - 43.3 °F 95% 30.27 in 7.0 mi Calm Calm - N/A   Clear
10:55 PM 45.0 °F - 43.5 °F 95% 30.27 in 7.0 mi Calm Calm - N/A   Clear
11:15 PM 44.6 °F - 43.9 °F 97% 30.27 in 7.0 mi Calm Calm - N/A   Clear
11:35 PM 43.7 °F - 43.7 °F 100% 30.26 in 7.0 mi Calm Calm - N/A   Clear
11:55 PM 43.3 °F - 43.2 °F 99% 30.26 in 5.0 mi Calm Calm - N/A   Clear